Location: College Rock
(37.2713°N, 119.1740°W)
Time: 03:31:03
(UTC+00:00)

ADEOS Rocket - Pass Details

Date: 29 October 2020
Orbit: 859 x 1306 km, 98.7° (Epoch: 23 November)

Event Time Altitude Azimuth Distance (km) Brightness Sun altitude
Rises 12:42:25 0° 187° (S) 3,450 5.8 -19.7°
Reaches altitude 10° 12:44:58 10° 195° (SSW) 2,496 5.0 -19.2°
Maximum altitude 12:50:00 37° 262° (W) 1,306 3.2 -18.2°
Drops below altitude 10° 12:55:07 10° 330° (NNW) 2,535 4.9 -17.2°
Sets 12:57:45 0° 338° (NNW) 3,511 5.7 -16.7°
